Probability
0 0 0 0 0 0 0 0 0 0 0 0 0 0 0 0 0 1 1 0 0 1 4 10 15 17 15 12 10 8 5 4 6 6 6 6 6 6 5 4 3 3 3 3 3 3 3 3 3
0 0 0 0 0 0 0 0 0 0 0 0 0 0 0 0 1 2 2 1 1 3 7 12 17 19 18 14 12 10 7 5 6 6 6 6 6 6 5 4 3 3 3 3 3 3 3 4 4
0 0 0 0 0 0 0 0 0 0 0 0 0 0 0 1 2 3 3 2 1 3 9 15 20 22 20 17 14 12 10 7 6 7 6 6 6 6 6 4 3 3 3 3 3 3 4 4 3
0 0 0 0 0 0 0 0 0 0 0 0 0 0 1 1 2 3 3 2 1 2 9 17 21 22 21 19 17 14 11 8 7 7 7 6 6 6 6 5 4 3 3 3 3 3 3 3 2
0 0 0 0 0 0 0 0 0 0 0 0 0 1 2 3 3 2 2 1 1 3 9 17 22 23 23 22 20 16 12 9 8 8 7 6 6 6 6 6 4 3 3 3 3 3 3 1 0
0 0 0 0 0 0 0 0 0 0 0 0 0 1 4 5 4 2 2 2 3 6 11 17 21 23 24 23 22 18 13 9 8 8 7 7 6 6 6 6 4 3 3 3 3 3 2 1 0
0 0 0 0 0 0 0 0 0 0 0 0 0 1 4 5 4 3 3 4 7 11 15 17 19 21 22 22 21 19 15 11 9 9 8 6 5 5 5 6 5 5 5 5 4 3 1 0 0
0 0 0 0 0 0 0 0 0 0 0 0 0 1 3 5 4 3 4 5 8 11 14 17 18 18 18 19 19 18 16 12 10 9 8 5 3 3 4 5 6 7 8 8 7 5 2 1 0
0 0 0 0 0 0 0 0 0 0 0 0 0 1 3 5 5 4 4 5 7 9 10 14 16 16 15 15 16 15 13 11 9 8 7 4 1 1 2 4 6 8 9 10 9 6 3 1 1
0 0 0 0 0 0 0 0 0 0 0 0 0 0 2 4 5 5 4 5 7 7 7 10 13 14 13 13 14 13 11 10 8 7 6 4 1 1 1 3 6 9 10 10 10 6 3 1 0
0 0 0 0 0 0 0 0 0 0 0 0 0 0 1 2 3 4 4 5 6 7 7 10 12 12 11 12 13 12 11 10 9 7 4 3 1 1 2 4 7 9 9 9 8 6 2 0 0
0 0 0 0 0 0 0 0 0 0 0 0 0 0 1 1 1 2 3 4 6 7 8 9 11 10 8 9 11 12 11 10 9 6 4 2 1 1 3 5 7 8 8 7 6 4 1 0 0
0 0 0 0 0 0 0 0 0 0 0 0 0 0 0 0 0 0 2 4 6 7 7 9 9 8 6 6 9 11 11 10 9 6 4 2 1 1 3 4 6 7 7 5 4 3 1 0 0
0 0 0 0 0 0 0 0 0 0 0 0 0 0 0 0 0 0 1 4 6 6 7 7 8 7 5 5 7 10 10 10 8 6 4 3 1 0 1 2 4 6 7 6 4 3 1 0 0
0 0 0 0 0 0 0 0 0 0 0 0 0 0 0 0 0 0 1 3 5 6 6 7 7 6 5 5 7 8 9 9 7 6 5 3 1 0 0 0 2 5 7 7 6 3 1 0 0
0 0 0 0 0 0 0 0 0 0 0 0 0 0 0 0 0 0 1 3 4 5 6 6 7 7 6 5 6 7 7 7 6 6 6 3 1 0 0 0 1 3 6 8 7 4 1 0 0
0 0 0 0 0 0 0 0 0 0 0 0 0 0 0 0 0 0 1 2 3 4 6 6 7 8 7 5 6 6 6 5 6 6 6 3 1 0 0 1 1 2 4 7 7 4 1 0 0
0 0 0 0 0 0 0 0 0 0 0 0 0 0 0 0 0 0 0 1 2 4 5 6 7 8 8 6 5 5 4 4 4 5 4 3 1 0 0 0 0 1 3 5 6 5 2 0 0
0 0 0 0 0 0 0 0 0 0 0 0 0 0 0 0 0 0 0 0 1 3 4 6 7 8 8 6 4 3 2 2 3 3 2 2 2 1 0 0 0 0 2 3 4 4 3 1 0
0 0 0 0 0 0 0 0 0 0 0 0 0 0 0 0 0 0 0 0 1 2 4 5 6 7 9 7 3 1 1 1 1 1 1 1 2 1 0 0 0 0 1 2 3 2 2 1 1
0 0 0 0 0 0 0 0 0 0 0 0 0 0 0 0 0 0 0 0 0 1 3 4 6 7 9 7 3 1 1 1 1 0 0 1 1 0 0 0 0 0 0 1 1 1 1 1 0
0 0 0 0 0 0 0 0 0 0 0 0 0 0 0 0 0 0 0 0 0 1 2 4 6 7 8 7 4 2 2 2 1 0 0 0 0 0 0 0 0 0 0 0 0 0 0 0 0
0 0 0 0 0 0 0 0 0 0 0 0 0 0 0 0 0 0 0 0 0 0 1 3 6 7 7 6 4 3 2 1 0 0 0 0 0 0 0 0 0 0 0 0 0 0 0 0 0
0 0 0 0 0 0 0 0 0 0 0 0 0 0 0 0 0 0 0 0 0 0 1 3 5 6 6 6 4 3 2 0 0 0 0 0 0 0 0 0 0 0 0 0 0 0 0 0 1
0 0 0 0 0 0 0 0 0 0 0 0 0 0 0 0 0 0 0 1 1 1 1 3 4 5 6 6 4 3 2 1 0 0 0 0 0 0 0 0 0 0 0 0 0 0 0 0 1
0 0 0 0 0 0 0 0 0 0 0 0 0 0 0 0 0 0 0 1 2 2 3 4 4 5 6 6 5 4 2 1 0 0 0 0 1 1 0 0 0 0 0 0 0 0 0 0 1
0 0 0 0 0 0 0 0 0 0 0 0 0 0 0 0 0 0 0 1 2 3 4 5 5 5 6 6 6 4 2 1 0 0 0 1 2 1 0 0 0 0 0 0 0 0 0 0 0
0 0 0 0 0 0 0 0 0 0 0 0 0 0 0 0 0 0 0 0 1 3 4 5 6 6 6 7 6 4 2 1 0 0 0 1 2 1 0 0 0 0 0 0 0 0 0 0 0
0 0 0 0 0 0 0 0 0 0 0 0 0 0 0 0 0 0 0 0 1 2 3 4 5 6 7 8 8 6 2 0 0 0 0 1 2 1 0 0 0 0 0 0 0 0 0 0 0
0 0 0 0 0 0 0 0 0 0 0 0 0 0 0 0 0 0 0 0 0 1 3 4 5 6 7 8 9 7 3 1 0 0 0 1 2 1 0 0 0 0 0 0 0 0 0 0 0
Wind_Speed
11 6 2 4 6 4 2 3 2 1 1 1 1 4 5 3 2 3 1 3 4 5 4 5 7 8 8 9 9 9 9 9 9 9 9 9 9 9 9 9 9 9 9 9 9 9 9 9 9
5 3 4 5 5 1 4 3 3 3 3 0 2 4 5 3 2 4 2 3 5 5 4 5 6 8 8 9 9 9 9 9 9 9 9 8 9 9 9 8 8 8 9 8 8 8 8 8 8
4 1 4 5 3 5 4 3 4 3 2 1 3 4 3 2 2 2 2 5 5 4 4 5 7 8 8 9 9 9 8 8 8 8 8 8 8 8 8 8 8 8 8 8 7 7 7 7 7
3 4 5 3 4 4 4 3 2 2 2 3 3 3 2 1 1 2 5 6 6 4 3 5 7 8 8 8 8 8 8 8 8 7 7 8 8 8 8 8 8 7 7 7 7 6 6 6 6
4 4 3 1 4 3 2 2 1 1 1 2 3 3 1 3 2 5 6 6 6 3 2 4 7 8 8 8 8 8 7 7 7 7 7 8 8 8 8 8 7 7 7 6 6 6 5 5 5
4 4 3 4 5 2 2 2 1 1 1 2 3 2 1 1 4 3 4 4 4 4 3 3 6 7 7 7 7 7 7 6 7 7 7 7 7 8 8 8 7 7 7 6 5 5 5 4 5
4 4 4 4 3 2 2 1 1 0 1 1 1 3 1 1 1 2 3 3 3 3 3 2 3 4 6 6 6 6 6 5 6 6 5 6 6 7 7 7 7 7 6 5 5 5 4 4 4
4 4 2 2 3 3 2 1 0 0 1 1 2 4 3 4 1 2 4 4 3 3 3 2 2 2 3 3 4 4 4 4 5 5 4 5 5 6 6 6 6 6 5 5 5 4 3 3 3
3 4 3 3 3 3 2 2 3 2 1 2 1 2 2 2 2 4 4 3 2 2 2 2 2 2 2 2 3 3 3 3 3 4 4 4 3 3 3 4 5 5 5 5 4 3 2 2 2
4 3 5 2 2 1 2 1 2 3 3 2 3 3 2 2 3 4 3 2 2 1 1 2 2 2 2 2 2 1 2 1 1 2 2 2 2 2 3 4 5 5 5 4 4 2 1 1 1
3 4 3 2 1 0 1 2 2 1 2 3 2 3 0 1 1 2 2 3 3 2 1 1 2 2 2 2 2 1 1 1 1 2 2 2 2 2 1 1 2 2 3 2 1 1 0 0 0
2 1 2 1 2 1 2 2 2 3 6 4 3 3 2 2 2 3 3 2 1 1 1 1 1 1 1 1 1 1 1 1 1 2 2 2 2 2 1 1 2 1 1 1 1 1 1 0 0
1 1 2 2 3 2 2 3 3 5 6 3 2 1 3 3 3 3 3 2 2 1 1 1 1 1 1 2 1 1 1 2 2 2 2 3 2 2 2 2 2 2 1 2 1 1 1 1 1
1 1 2 3 2 2 2 5 3 7 3 1 1 3 4 4 4 2 2 2 2 2 2 1 1 2 1 1 2 1 1 1 1 1 2 3 2 2 3 2 2 2 2 2 2 2 2 1 1
0 1 3 2 2 1 1 6 6 6 2 3 4 4 4 4 3 3 3 3 3 3 2 2 2 2 2 2 2 2 1 1 1 1 2 3 3 3 3 3 3 3 2 2 2 2 1 1 1
2 1 2 3 1 1 1 8 6 3 1 4 5 5 5 5 4 4 4 3 3 2 2 2 1 1 2 2 2 2 2 2 2 2 2 3 3 3 3 3 3 3 2 2 2 2 1 1 1
2 1 3 4 1 0 2 8 7 3 3 5 5 5 5 4 4 4 3 3 3 3 2 2 1 1 2 2 2 2 2 2 2 2 2 3 4 3 3 3 2 3 2 2 2 2 2 2 2
3 3 3 5 3 2 4 9 9 5 4 6 5 4 4 4 5 4 3 2 2 2 2 2 1 2 2 1 1 1 1 2 2 3 3 3 3 4 3 2 2 2 2 2 2 2 2 2 2
3 3 4 5 3 2 7 10 11 6 5 5 5 4 4 5 5 3 2 2 2 1 1 2 2 2 1 1 2 2 3 2 2 3 4 4 3 4 4 2 2 2 3 3 3 2 2 2 1
2 2 4 4 2 3 5 10 9 6 6 6 5 5 5 3 3 3 2 1 2 2 2 2 3 3 3 3 3 2 3 2 3 3 3 4 4 4 4 3 3 3 2 3 3 3 2 2 1
3 4 4 4 4 3 3 8 6 4 3 4 4 4 4 3 4 3 3 2 2 2 2 3 3 3 4 3 2 1 1 1 2 2 3 3 4 4 4 4 3 3 3 4 4 4 4 3 2
4 3 3 3 2 3 0 5 6 3 4 4 5 4 4 4 4 3 3 3 3 4 3 3 4 4 4 3 3 4 3 3 4 3 3 3 4 4 5 4 4 4 3 4 4 4 3 4 4
4 2 2 2 1 3 2 3 9 3 4 5 5 4 4 3 3 3 4 4 4 4 3 3 3 4 4 4 4 4 4 4 2 2 3 3 3 4 4 4 4 4 4 4 4 4 4 4 4
1 2 2 2 2 4 5 5 9 5 6 4 4 3 3 3 3 3 3 3 3 3 2 2 3 4 4 4 4 4 5 4 3 3 3 3 3 3 4 4 4 4 4 4 5 4 4 4 4
2 3 3 4 2 7 2 4 10 6 4 4 4 3 4 3 2 2 3 3 3 3 3 3 3 5 5 4 5 5 6 5 5 5 5 4 3 4 5 4 4 4 4 4 4 4 4 4 5
3 5 5 4 5 5 2 7 9 4 3 2 2 2 2 2 2 3 3 3 3 4 4 3 4 5 5 5 5 4 5 4 4 5 4 5 5 5 5 5 5 5 5 4 4 3 4 3 4
3 4 4 3 1 4 6 7 8 3 2 2 2 3 3 3 3 3 3 3 4 4 4 4 5 5 5 5 4 4 5 4 5 5 4 4 4 4 5 5 5 5 5 5 4 3 4 3 4
3 4 4 3 2 5 6 6 6 4 4 2 2 3 4 4 4 4 4 4 4 5 5 4 5 5 5 5 5 4 4 4 5 4 5 5 4 4 5 5 5 5 5 5 4 4 3 4 4
3 2 3 2 3 4 5 9 5 5 3 3 4 4 4 5 5 5 4 4 5 5 4 4 4 4 4 4 4 4 4 4 4 4 5 5 4 4 4 5 5 5 5 5 5 4 4 5 5
3 4 5 4 5 4 4 11 4 3 3 3 4 5 5 5 5 5 5 5 5 5 5 4 4 4 4 5 4 4 4 4 4 5 5 5 4 4 4 4 4 5 5 5 6 6 5 6 6
Wind_Direction
334 331 33 55 57 57 225 254 254 320 311 268 63 92 105 100 127 165 173 127 119 136 144 140 136 134 134 133 131 127 124 123 121 122 121 117 113 112 110 106 103 99 97 97 96 102 101 98 96
332 345 51 61 94 162 250 247 234 242 228 231 58 76 77 72 68 106 108 130 125 132 137 134 130 132 133 134 133 130 128 124 123 124 127 125 120 116 113 110 107 103 100 98 97 100 106 103 100
331 44 79 81 135 191 216 234 222 246 290 30 49 52 89 107 100 132 148 137 118 125 131 131 124 128 133 134 133 131 129 128 128 129 132 132 126 121 119 115 110 107 104 101 99 98 106 106 103
41 49 60 90 209 222 203 228 226 241 344 28 86 53 57 24 162 148 128 118 110 111 128 133 128 127 130 135 134 132 133 134 135 135 139 135 129 124 121 117 112 110 108 105 103 103 102 107 103
59 79 84 198 233 238 230 259 266 18 344 8 76 95 43 339 56 107 120 121 116 105 112 137 130 128 126 130 137 136 133 136 139 139 141 140 136 132 128 123 119 117 113 111 112 109 103 101 101
61 77 122 215 233 251 276 298 356 32 352 3 61 107 159 337 76 101 114 115 125 126 117 135 129 130 127 128 132 138 139 141 142 143 143 143 141 138 135 132 128 124 119 118 118 117 110 101 89
107 116 174 197 216 246 278 328 94 17 17 307 103 116 188 300 88 114 113 113 112 121 119 120 135 137 133 128 127 133 140 143 145 145 144 141 139 142 139 134 132 128 125 125 124 121 120 105 90
121 116 171 201 198 228 301 351 48 82 265 304 103 138 199 244 269 96 99 108 110 114 124 127 132 132 140 144 131 121 122 136 142 141 135 134 137 142 141 139 137 133 130 129 130 128 119 103 86
89 96 199 207 191 221 317 18 342 342 40 355 21 172 230 196 110 88 83 80 100 113 125 131 141 145 145 148 130 119 116 126 139 142 130 123 137 142 146 143 141 139 135 135 137 135 119 84 64
88 160 212 221 193 194 333 5 325 11 1 340 344 342 19 86 113 118 129 139 159 170 168 148 149 165 164 153 137 141 137 124 128 143 140 135 136 140 138 139 143 142 139 144 151 152 131 69 32
117 179 200 258 275 291 325 325 331 110 265 232 253 281 157 101 132 163 166 173 190 187 180 201 165 170 169 158 152 140 129 120 108 126 137 137 131 133 135 144 149 151 145 147 162 152 48 67 88
114 245 205 245 303 297 262 279 310 232 236 244 224 215 182 198 218 205 209 187 183 168 186 240 192 157 175 156 160 155 146 146 149 157 143 140 147 149 161 166 168 166 168 163 163 200 231 238 223
198 267 282 291 315 287 282 262 258 261 260 274 258 219 209 219 237 227 222 199 170 167 172 227 207 160 172 153 166 162 168 169 173 170 165 147 158 174 180 188 183 184 176 176 183 204 209 214 222
191 243 283 285 286 293 269 277 253 260 261 281 268 242 237 231 229 229 218 207 194 196 211 209 188 188 162 164 170 185 197 182 175 182 191 174 162 178 183 192 195 196 192 192 189 199 199 210 205
106 348 316 280 252 273 353 291 241 247 253 260 257 255 263 260 237 217 208 206 203 207 217 216 199 192 183 197 189 180 196 186 186 196 199 190 173 181 185 188 206 206 196 192 188 192 178 195 227
58 54 296 283 199 239 139 262 261 254 229 258 259 260 260 262 239 231 221 206 203 201 221 231 228 202 207 209 203 192 192 196 201 201 200 199 182 186 186 186 206 208 193 188 194 191 187 211 222
50 222 250 284 243 134 199 259 271 267 251 262 264 264 259 273 262 249 229 202 198 197 203 220 222 222 225 213 205 209 201 205 212 202 205 205 189 184 188 192 205 207 195 194 205 203 193 205 220
212 228 246 247 259 229 245 260 276 275 252 254 260 264 261 261 260 251 232 213 207 204 199 213 220 234 236 238 211 218 222 219 221 213 209 206 202 188 189 191 202 205 199 198 201 206 214 207 207
189 206 253 254 262 256 250 266 274 271 255 254 254 254 259 257 262 262 235 221 212 209 206 234 237 254 233 240 229 224 233 227 226 224 213 205 209 203 195 197 198 204 209 206 199 201 207 226 181
214 239 269 287 291 264 268 275 272 254 238 232 234 243 251 263 284 287 268 242 232 228 229 235 236 245 242 233 235 222 225 229 230 235 224 209 205 207 208 201 201 205 211 203 198 200 199 219 187
243 216 241 267 324 325 314 298 277 264 253 256 242 231 234 237 255 269 271 261 238 239 241 257 251 249 249 242 230 251 225 250 237 236 228 219 211 209 207 207 211 211 209 211 205 194 199 208 222
251 226 228 263 335 296 341 290 282 272 285 265 261 244 238 246 253 256 261 271 254 246 240 245 254 256 254 242 219 225 224 236 238 223 223 221 214 214 210 206 211 213 217 222 215 206 208 195 210
224 241 225 238 217 289 254 243 279 285 268 265 261 244 235 240 249 257 256 254 249 246 245 248 256 260 257 243 227 226 234 238 250 233 220 223 224 221 211 204 205 214 221 226 221 213 211 207 208
212 15 29 42 78 271 231 205 274 246 239 256 263 246 239 244 254 261 265 271 273 268 265 262 262 265 254 242 235 229 233 238 237 240 228 229 231 227 219 211 209 215 220 225 222 212 211 217 221
85 88 27 354 337 255 230 210 251 253 243 231 243 254 252 241 241 259 275 285 294 294 284 278 271 269 258 244 240 234 233 228 226 229 229 229 231 232 224 220 216 221 220 226 223 217 216 216 215
200 158 163 207 238 280 283 235 252 255 256 242 235 260 271 271 263 265 261 259 266 273 277 278 277 267 260 249 249 244 237 231 235 235 234 230 229 228 221 216 218 223 219 223 220 221 224 222 225
161 196 180 150 235 278 269 277 290 272 306 330 343 344 320 301 293 288 282 276 274 273 269 266 269 269 261 253 250 249 241 238 242 242 238 241 242 236 221 215 214 217 213 213 212 222 223 221 228
169 152 118 149 198 262 280 265 249 262 278 302 313 310 308 307 305 301 296 288 281 272 270 266 264 256 250 246 243 247 246 246 247 242 241 243 244 238 225 218 215 214 212 209 207 220 223 224 233
171 169 153 158 183 197 264 267 229 221 230 242 263 275 284 295 299 297 293 289 286 283 278 274 270 263 260 253 247 248 252 253 254 245 244 242 240 236 230 224 215 213 213 210 207 215 217 225 236
201 192 166 183 233 208 224 268 260 210 241 255 274 286 288 288 295 293 292 292 293 291 287 279 268 258 255 251 249 248 253 256 254 248 249 241 235 232 229 228 219 217 217 214 210 214 219 223 227